sat.trackr.live / text

‹ back to catalog

HULIANWANG DIGUI-126

NORAD 67066 · 2025-295H

PAYLOAD ACTIVE UNKNOWN

§ Identity

Operator
Country
PRC
Launch date
2025-12-11
Launch site
WSC
Launch vehicle
Mass (kg)
RCS (m²)

External: N2YO · Heavens-Above · Gunter

§ Orbital elements

Epoch: 2026-09-20T15:37:40.946304Z

Period
108.33 min
Inclination
50.0002°
Eccentricity
0.0000673
Mean motion
13.29326547 rev/d
Perigee alt
1,148.8 km
Apogee alt
1,149.8 km
Semi-major
7,527.4 km
B*
3.3472e-5
RAAN
42.7701°
Arg perigee
77.7758°
Mean anomaly
282.3190°
Rev number
3,820

§ Raw data

HULIANWANG DIGUI-1261 67066U 25295H   26263.65116836 -.00000109  00000+0  33472-4 0  99962 67066  50.0002  42.7701 0000673  77.7758 282.3190 13.29326547 38202

JSON: /api/v1/satellites/67066 · /tle

For live sub-satellite position, see the globe view (requires WebGL).

§ Visibility from observer

Set your observer location to see the next 7 days of passes ≥ 10°. The values pass through the URL so the page stays shareable.

No JS? Fill the form by hand. The geolocation button needs JavaScript.